KE5OYL Weather Reports


Display with metric or nautical units.
time (UTC)temp
F
wind
direction
speed
MPH
gust
MPH
rain 1hr
in
rain 24hr
in
rain mn
in
humidity
%
barometer
mb
20260904090932 78 47 3.0 5.0 0.00 0.00 0.00 84 1014.1
20260904090429 78 92 2.0 3.0 0.00 0.00 0.00 84 1013.9
20260904085923 78 120 3.0 5.0 0.00 0.00 0.00 84 1013.8
20260904085419 78 79 2.0 5.0 0.00 0.00 0.00 84 1013.8
20260904084913 78 132 3.0 6.0 0.00 0.00 0.00 83 1014.0
20260904084410 78 48 1.0 2.0 0.00 0.00 0.00 83 1014.0
20260904083905 78 44 2.0 3.0 0.00 0.00 0.00 83 1014.1
20260904083402 78 83 3.0 6.0 0.00 0.00 0.00 82 1013.9
20260904082857 79 48 3.0 3.0 0.00 0.00 0.00 82 1013.9
20260904082351 79 83 3.0 5.0 0.00 0.00 0.00 82 1013.9
20260904081847 79 41 2.0 5.0 0.00 0.00 0.00 82 1013.7
20260904081342 79 59 3.0 5.0 0.00 0.00 0.00 81 1013.6
20260904080838 80 28 2.0 3.0 0.00 0.00 0.00 81 1013.9
20260904080333 80 42 2.0 2.0 0.00 0.00 0.00 81 1013.9
20260904075829 80 40 2.0 2.0 0.00 0.00 0.00 80 1013.9
20260904075324 80 30 2.0 5.0 0.00 0.00 0.00 80 1013.6
20260904074822 80 100 2.0 6.0 0.00 0.00 0.00 81 1013.6
20260904074317 80 161 4.0 6.0 0.00 0.00 0.00 81 1013.6
20260904073813 80 126 2.0 5.0 0.00 0.00 0.00 80 1013.6
20260904073309 80 28 1.0 2.0 0.00 0.00 0.00 80 1013.8
20260904072805 80 167 3.0 5.0 0.00 0.00 0.00 81 1013.8
20260904072306 80 208 4.0 6.0 0.00 0.00 0.00 80 1013.8
20260904071800 80 232 2.0 5.0 0.00 0.00 0.00 80 1014.0
20260904071255 80 144 2.0 3.0 0.00 0.00 0.00 79 1013.7
20260904070749 80 311 2.0 2.0 0.00 0.00 0.00 79 1013.8
20260904070248 80 154 2.0 5.0 0.00 0.00 0.00 79 1013.9
20260904065743 80 175 2.0 7.0 0.00 0.00 0.00 79 1014.0
20260904065240 80 193 5.0 7.0 0.00 0.00 0.00 78 1014.1
20260904064739 80 207 2.0 5.0 0.00 0.00 0.00 79 1014.1
20260904064235 80 182 5.0 6.0 0.00 0.00 0.00 78 1014.0
20260904063731 80 143 4.0 5.0 0.00 0.00 0.00 78 1014.1
20260904063227 80 103 2.0 5.0 0.00 0.00 0.00 78 1014.0
20260904062723 80 217 2.0 7.0 0.00 0.00 0.00 78 1013.9
20260904062218 80 124 4.0 6.0 0.00 0.00 0.00 77 1013.9
20260904061714 80 127 3.0 3.0 0.00 0.00 0.00 77 1014.0
20260904061210 80 195 3.0 6.0 0.00 0.00 0.00 77 1014.0
20260904060706 81 157 4.0 7.0 0.00 0.00 0.00 77 1014.2
20260904060202 81 116 5.0 7.0 0.00 0.00 0.00 76 1014.2
20260904055656 81 194 5.0 9.0 0.00 0.00 0.00 76 1014.2
20260904055152 81 122 3.0 6.0 0.00 0.00 0.00 76 1014.1
20260904054648 81 156 5.0 6.0 0.00 0.00 0.00 76 1014.1
20260904054143 81 126 2.0 6.0 0.00 0.00 0.00 76 1014.2
20260904053638 80 81 3.0 8.0 0.00 0.00 0.00 76 1014.3
20260904053132 81 176 6.0 8.0 0.00 0.00 0.00 75 1014.1
20260904052629 80 150 4.0 9.0 0.00 0.00 0.00 76 1014.1
20260904052125 81 209 8.0 13.0 0.00 0.00 0.00 76 1013.9
20260904051620 81 163 4.0 9.0 0.00 0.00 0.00 76 1013.8
20260904051115 81 179 5.0 9.0 0.00 0.00 0.00 76 1014.1
20260904050611 81 181 7.0 14.0 0.00 0.00 0.00 76 1014.1
20260904050107 81 146 6.0 8.0 0.00 0.00 0.00 75 1014.0
20260904045601 81 155 6.0 10.0 0.00 0.00 0.00 75 1013.9
20260904045056 81 218 4.0 6.0 0.00 0.00 0.00 75 1014.2
20260904044552 81 179 4.0 7.0 0.00 0.00 0.00 74 1014.0
20260904044048 81 137 3.0 9.0 0.00 0.00 0.00 74 1013.8
20260904043544 81 146 4.0 9.0 0.00 0.00 0.00 73 1013.8
20260904043040 81 179 4.0 9.0 0.00 0.00 0.00 73 1014.1
20260904042536 81 118 6.0 7.0 0.00 0.00 0.00 73 1013.9
20260904042031 81 197 3.0 8.0 0.00 0.00 0.00 72 1014.2
20260904041527 81 174 4.0 8.0 0.00 0.00 0.00 72 1013.8
20260904041023 81 102 3.0 7.0 0.00 0.00 0.00 72 1014.1
20260904040522 81 184 8.0 10.0 0.00 0.00 0.00 72 1014.2
20260904040019 81 124 5.0 9.0 0.00 0.00 0.00 71 1014.0
20260904035514 82 202 5.0 7.0 0.00 0.00 0.00 71 1014.1
20260904035013 81 186 5.0 10.0 0.00 0.00 0.00 71 1014.2
20260904034508 81 96 7.0 9.0 0.00 0.00 0.00 70 1014.2
20260904034004 81 176 5.0 9.0 0.00 0.00 0.00 70 1014.3
20260904033500 82 96 3.0 6.0 0.00 0.00 0.00 69 1014.0
20260904032956 82 120 3.0 9.0 0.00 0.00 0.00 69 1014.1
20260904032451 82 67 3.0 7.0 0.00 0.00 0.00 68 1014.4
20260904031950 82 171 3.0 9.0 0.00 0.00 0.00 68 1014.3
20260904031445 82 101 3.0 6.0 0.00 0.00 0.00 66 1014.1
20260904030942 82 144 2.0 7.0 0.00 0.00 0.00 66 1014.1
20260904030437 82 86 2.0 3.0 0.00 0.00 0.00 66 1014.1
20260904025932 82 89 3.0 8.0 0.00 0.00 0.00 67 1013.9
20260904025428 82 81 5.0 8.0 0.00 0.00 0.00 67 1013.9
20260904024922 82 124 6.0 9.0 0.00 0.00 0.00 67 1013.8
20260904024418 82 124 6.0 10.0 0.00 0.00 0.00 68 1013.7
20260904023913 82 68 3.0 6.0 0.00 0.00 0.00 69 1013.8
20260904023410 83 80 2.0 8.0 0.00 0.00 0.00 69 1013.4
20260904022908 83 161 5.0 8.0 0.00 0.00 0.00 69 1013.8
20260904022405 83 132 3.0 7.0 0.00 0.00 0.00 69 1013.5
20260904021902 83 71 3.0 3.0 0.00 0.00 0.00 68 1013.2
20260904021357 83 150 7.0 9.0 0.00 0.00 0.00 68 1013.3
20260904020852 83 118 5.0 8.0 0.00 0.00 0.00 68 1013.2
20260904020347 83 215 5.0 11.0 0.00 0.00 0.00 68 1013.1
20260904015846 84 40 2.0 14.0 0.00 0.00 0.00 69 1013.1
20260904015342 84 173 4.0 9.0 0.00 0.00 0.00 69 1013.0
20260904014840 84 87 4.0 7.0 0.00 0.00 0.00 69 1012.9
20260904014335 84 109 3.0 7.0 0.00 0.00 0.00 69 1013.0
20260904013831 84 99 4.0 11.0 0.00 0.00 0.00 69 1012.9
20260904013327 84 102 10.0 13.0 0.00 0.00 0.00 69 1013.0
20260904012823 84 116 6.0 9.0 0.00 0.00 0.00 69 1012.9
20260904012323 84 113 5.0 8.0 0.00 0.00 0.00 69 1012.8
20260904011822 84 155 9.0 14.0 0.00 0.00 0.00 69 1012.7
20260904011317 85 161 3.0 8.0 0.00 0.00 0.00 68 1012.5
20260904010811 85 71 3.0 8.0 0.00 0.00 0.00 68 1012.4
20260904010309 85 107 7.0 11.0 0.00 0.00 0.00 68 1012.6
20260904005803 85 30 3.0 9.0 0.00 0.00 0.00 68 1012.5
20260904005259 85 137 5.0 7.0 0.00 0.00 0.00 67 1012.5
20260904004754 85 168 6.0 10.0 0.00 0.00 0.00 67 1012.6
20260904004250 86 117 8.0 10.0 0.00 0.00 0.00 65 1012.7
20260904003744 86 136 4.0 15.0 0.00 0.00 0.00 65 1012.5
20260904003241 86 127 6.0 15.0 0.00 0.00 0.00 65 1012.6
20260904002736 87 88 6.0 11.0 0.00 0.00 0.00 64 1012.6
20260904002233 87 122 7.0 14.0 0.00 0.00 0.00 63 1012.4
20260904001732 87 126 5.0 7.0 0.00 0.00 0.00 62 1012.4
20260904001226 87 124 5.0 16.0 0.00 0.00 0.00 62 1012.4
20260904000721 88 112 6.0 9.0 0.00 0.00 0.00 61 1012.2
20260904000218 88 13 3.0 10.0 0.00 0.00 0.00 59 1012.4
20260903235715 88 110 5.0 11.0 0.00 0.00 0.00 59 1012.3
20260903235212 89 135 7.0 10.0 0.00 0.00 0.00 58 1012.0
20260903234706 89 171 6.0 9.0 0.00 0.00 0.00 57 1012.0
20260903234203 89 110 7.0 11.0 0.00 0.00 0.00 57 1011.9
20260903233658 89 105 7.0 11.0 0.00 0.00 0.00 57 1011.9
20260903233154 89 112 7.0 11.0 0.00 0.00 0.00 57 1012.0
20260903232647 90 105 5.0 11.0 0.00 0.00 0.00 57 1011.8
20260903232144 90 88 4.0 8.0 0.00 0.00 0.00 57 1012.0
20260903231643 90 138 6.0 11.0 0.00 0.00 0.00 57 1011.9
20260903231137 90 156 5.0 13.0 0.00 0.00 0.00 57 1012.0
20260903230633 90 64 4.0 14.0 0.00 0.00 0.00 58 1011.9
20260903230132 90 15 3.0 9.0 0.00 0.00 0.00 57 1011.9
20260903225629 90 202 5.0 14.0 0.00 0.00 0.00 58 1011.8
20260903225125 89 160 4.0 9.0 0.00 0.00 0.00 59 1011.8
20260903224621 90 87 7.0 8.0 0.00 0.00 0.00 58 1012.0
20260903224118 90 97 7.0 11.0 0.00 0.00 0.00 57 1011.8
20260903223613 91 167 6.0 15.0 0.00 0.00 0.00 58 1011.6
20260903223111 91 150 4.0 7.0 0.00 0.00 0.00 58 1011.5
20260903222606 90 25 3.0 9.0 0.00 0.00 0.00 58 1011.8
20260903222105 91 162 8.0 14.0 0.00 0.00 0.00 58 1011.9
20260903221600 91 139 7.0 14.0 0.00 0.00 0.00 58 1011.8
20260903221058 91 75 3.0 8.0 0.00 0.00 0.00 58 1011.6
20260903220557 91 161 5.0 7.0 0.00 0.00 0.00 58 1011.8
20260903220056 92 81 5.0 8.0 0.00 0.00 0.00 56 1011.8
20260903215556 90 124 3.0 8.0 0.00 0.00 0.00 59 1011.8
20260903215056 90 63 5.0 10.0 0.00 0.00 0.00 60 1012.0
20260903214550 91 115 5.0 11.0 0.00 0.00 0.00 58 1011.9
20260903214045 91 59 4.0 11.0 0.00 0.00 0.00 59 1012.2
20260903213540 90 164 7.0 10.0 0.00 0.00 0.00 59 1012.0
20260903213036 90 59 3.0 9.0 0.00 0.00 0.00 60 1012.1
20260903212532 90 194 4.0 10.0 0.00 0.00 0.00 60 1012.1
20260903212027 89 160 7.0 11.0 0.00 0.00 0.00 61 1012.2
20260903211522 89 148 3.0 11.0 0.00 0.00 0.00 61 1012.3
20260903211019 89 78 3.0 5.0 0.00 0.00 0.00 61 1012.4
20260903210519 89 145 6.0 10.0 0.00 0.00 0.00 62 1012.3
20260903210015 89 127 7.0 10.0 0.00 0.00 0.00 61 1012.3
20260903205508 90 107 3.0 9.0 0.00 0.00 0.00 62 1012.6
20260903205003 90 101 9.0 13.0 0.00 0.00 0.00 61 1012.8
20260903204459 89 28 1.0 9.0 0.00 0.00 0.00 63 1012.5
20260903203954 88 194 7.0 10.0 0.00 0.00 0.00 64 1012.7
20260903203449 89 104 7.0 10.0 0.00 0.00 0.00 62 1012.8
20260903202948 89 85 6.0 10.0 0.00 0.00 0.00 63 1012.8
20260903202445 88 181 5.0 10.0 0.00 0.00 0.00 63 1012.8
20260903201939 89 166 5.0 9.0 0.00 0.00 0.00 63 1013.0
20260903201435 89 168 6.0 9.0 0.00 0.00 0.00 63 1012.8
20260903200933 88 135 11.0 14.0 0.00 0.00 0.00 64 1012.9
20260903200428 87 101 9.0 11.0 0.00 0.00 0.00 65 1013.0
20260903195923 88 143 4.0 6.0 0.00 0.00 0.00 65 1013.0
20260903195420 88 169 6.0 8.0 0.00 0.00 0.00 65 1013.0
20260903194914 87 163 7.0 8.0 0.00 0.00 0.00 66 1013.2
20260903194410 88 144 8.0 17.0 0.00 0.00 0.00 65 1013.3
20260903193905 89 212 10.0 13.0 0.00 0.00 0.00 64 1013.0
20260903193402 89 124 5.0 9.0 0.00 0.00 0.00 63 1013.2
20260903192856 90 201 11.0 14.0 0.00 0.00 0.00 60 1013.3
20260903192352 89 321 4.0 14.0 0.00 0.00 0.00 64 1013.3
20260903191848 88 176 5.0 10.0 0.00 0.00 0.00 65 1013.3
20260903191344 88 165 11.0 14.0 0.00 0.00 0.00 65 1013.4
20260903190843 87 195 8.0 10.0 0.00 0.00 0.00 67 1013.7
20260903190338 87 216 12.0 15.0 0.00 0.00 0.00 67 1013.7
20260903185832 87 203 10.0 15.0 0.00 0.00 0.00 67 1013.5
20260903185327 87 190 6.0 8.0 0.00 0.00 0.00 66 1013.9
20260903184823 86 104 4.0 11.0 0.00 0.00 0.00 68 1013.8
20260903184320 86 108 9.0 14.0 0.00 0.00 0.00 69 1013.9
20260903183814 86 215 9.0 18.0 0.00 0.00 0.00 69 1013.9
20260903183309 85 101 9.0 14.0 0.00 0.00 0.00 70 1014.2
20260903182808 85 186 10.0 16.0 0.00 0.00 0.00 71 1014.2
20260903182306 85 174 6.0 8.0 0.00 0.00 0.00 70 1014.4
20260903181801 85 229 8.0 13.0 0.00 0.00 0.00 71 1014.4
20260903181257 85 128 7.0 10.0 0.00 0.00 0.00 71 1014.5
20260903180752 86 186 11.0 18.0 0.00 0.00 0.00 70 1014.5
20260903180250 85 277 6.0 14.0 0.00 0.00 0.00 72 1014.5
20260903175750 85 157 11.0 13.0 0.00 0.00 0.00 71 1014.4
20260903175244 85 238 5.0 14.0 0.00 0.00 0.00 71 1014.5
20260903174744 84 170 3.0 8.0 0.00 0.00 0.00 73 1014.5
20260903174239 84 203 11.0 14.0 0.00 0.00 0.00 74 1014.6
20260903173734 84 199 10.0 14.0 0.00 0.00 0.00 74 1014.6
20260903173230 84 100 10.0 15.0 0.00 0.00 0.00 74 1014.8
20260903172730 84 75 6.0 14.0 0.00 0.00 0.00 75 1014.9
20260903172225 83 198 9.0 11.0 0.00 0.00 0.00 76 1014.6
20260903171720 83 143 7.0 16.0 0.00 0.00 0.00 77 1015.0
20260903171216 83 175 6.0 22.0 0.00 0.00 0.00 77 1014.9
20260903170714 83 193 11.0 16.0 0.00 0.00 0.00 77 1014.8
20260903170210 84 204 10.0 13.0 0.00 0.00 0.00 76 1014.8
20260903165708 84 160 7.0 14.0 0.00 0.00 0.00 77 1014.8
20260903165203 84 113 4.0 15.0 0.00 0.00 0.00 77 1014.7
20260903164658 84 115 9.0 13.0 0.00 0.00 0.00 76 1014.9
20260903164154 84 181 5.0 11.0 0.00 0.00 0.00 77 1014.7
20260903163653 84 115 7.0 14.0 0.00 0.00 0.00 77 1014.6
20260903163150 84 132 9.0 16.0 0.00 0.00 0.00 77 1014.5
20260903162645 83 172 4.0 13.0 0.00 0.00 0.00 78 1014.5
20260903162141 83 149 9.0 14.0 0.00 0.00 0.00 78 1014.5
20260903161636 83 163 4.0 9.0 0.00 0.00 0.00 78 1014.7
20260903161132 83 176 4.0 8.0 0.00 0.00 0.00 79 1014.7
20260903160627 83 70 6.0 15.0 0.00 0.00 0.00 80 1014.7
20260903160121 83 168 8.0 13.0 0.00 0.00 0.00 80 1014.7
20260903155620 83 204 7.0 8.0 0.00 0.00 0.00 80 1014.8
20260903155115 83 102 5.0 6.0 0.00 0.00 0.00 81 1014.6
20260903154611 82 183 7.0 11.0 0.00 0.00 0.00 81 1014.6
20260903154108 82 185 6.0 9.0 0.00 0.00 0.00 81 1014.5
20260903153603 82 133 7.0 9.0 0.00 0.00 0.00 82 1014.4
20260903153058 82 167 7.0 10.0 0.00 0.00 0.00 81 1014.6
20260903152554 82 138 2.0 6.0 0.00 0.00 0.00 82 1014.2
20260903152050 82 194 8.0 11.0 0.00 0.00 0.00 82 1014.4
20260903151549 82 164 6.0 13.0 0.00 0.00 0.00 82 1014.5
20260903151045 82 32 2.0 9.0 0.00 0.00 0.00 82 1014.4
20260903150544 82 171 3.0 8.0 0.00 0.00 0.00 82 1014.5
20260903150040 82 109 6.0 11.0 0.00 0.00 0.00 83 1014.7
20260903145534 82 132 4.0 9.0 0.00 0.00 0.00 82 1014.6
20260903145029 81 79 3.0 5.0 0.00 0.00 0.00 83 1014.6
20260903144528 81 169 4.0 8.0 0.00 0.00 0.00 84 1014.7
20260903144024 81 310 3.0 6.0 0.00 0.00 0.00 84 1014.6
20260903143521 80 104 5.0 6.0 0.00 0.00 0.00 85 1014.4
20260903143016 80 50 2.0 6.0 0.00 0.00 0.00 85 1014.4
20260903142511 80 288 3.0 6.0 0.00 0.00 0.00 85 1014.4
20260903142008 80 191 4.0 8.0 0.00 0.00 0.00 85 1014.7
20260903141503 79 62 2.0 7.0 0.00 0.00 0.00 86 1014.6
20260903140958 79 143 6.0 7.0 0.00 0.00 0.00 86 1014.6
20260903140454 79 86 1.0 7.0 0.00 0.00 0.00 87 1014.9
20260903135949 79 166 4.0 8.0 0.00 0.00 0.00 87 1015.0
20260903135445 79 45 3.0 9.0 0.00 0.00 0.00 87 1014.9
20260903134945 79 115 8.0 10.0 0.00 0.00 0.00 86 1015.0
20260903134444 79 35 2.0 5.0 0.00 0.00 0.00 86 1014.8
20260903133941 79 132 1.0 5.0 0.00 0.00 0.00 86 1014.7
20260903133437 79 105 4.0 7.0 0.00 0.00 0.00 86 1014.5
20260903132932 79 191 4.0 7.0 0.00 0.00 0.00 86 1014.3
20260903132428 78 204 8.0 9.0 0.00 0.00 0.00 87 1014.4
20260903131928 78 67 3.0 9.0 0.00 0.00 0.00 87 1014.5
20260903131423 78 168 5.0 9.0 0.00 0.00 0.00 87 1014.4
20260903130921 78 144 3.0 5.0 0.00 0.00 0.00 87 1014.3
20260903130417 78 89 4.0 6.0 0.00 0.00 0.00 87 1014.2
20260903125915 78 55 3.0 8.0 0.00 0.00 0.00 87 1014.3
20260903125410 78 135 3.0 10.0 0.00 0.00 0.00 86 1014.3
20260903124909 79 86 5.0 7.0 0.00 0.00 0.00 85 1014.5
20260903124405 78 106 4.0 8.0 0.00 0.00 0.00 85 1014.1
20260903123904 79 90 3.0 8.0 0.00 0.00 0.00 85 1014.2
20260903123359 79 355 1.0 8.0 0.00 0.00 0.00 85 1014.4
20260903122857 79 178 5.0 7.0 0.00 0.00 0.00 85 1014.0
20260903122352 79 114 3.0 6.0 0.00 0.00 0.00 85 1014.0
20260903121851 79 44 2.0 7.0 0.00 0.00 0.00 85 1013.9
20260903121340 78 147 6.0 7.0 0.00 0.00 0.00 85 1014.2
20260903120836 78 25 1.0 5.0 0.00 0.00 0.00 85 1014.0
20260903120335 78 54 3.0 7.0 0.00 0.00 0.00 85 1013.9
20260903115833 79 108 3.0 7.0 0.00 0.00 0.00 84 1014.1
20260903115329 78 118 3.0 6.0 0.00 0.00 0.00 85 1013.9
20260903114828 78 124 5.0 6.0 0.00 0.00 0.00 85 1013.8
20260903114325 78 103 2.0 5.0 0.00 0.00 0.00 85 1013.8
20260903113825 78 79 3.0 5.0 0.00 0.00 0.00 85 1013.9
20260903113315 78 107 3.0 6.0 0.00 0.00 0.00 85 1013.9
20260903112811 78 80 5.0 8.0 0.00 0.00 0.00 84 1014.0
20260903112307 78 42 2.0 5.0 0.00 0.00 0.00 84 1013.9
20260903111805 78 47 3.0 7.0 0.00 0.00 0.00 84 1014.0
20260903111300 78 148 2.0 7.0 0.00 0.00 0.00 83 1014.0
20260903110756 79 179 2.0 2.0 0.00 0.00 0.00 83 1014.0
20260903110252 79 80 3.0 3.0 0.00 0.00 0.00 82 1014.1
20260903105751 79 179 4.0 7.0 0.00 0.00 0.00 82 1014.1
20260903105247 79 154 2.0 5.0 0.00 0.00 0.00 82 1013.7
20260903104746 79 79 3.0 3.0 0.00 0.00 0.00 82 1013.5
20260903104241 79 40 2.0 6.0 0.00 0.00 0.00 82 1013.7
20260903103737 79 95 3.0 5.0 0.00 0.00 0.00 81 1013.6
20260903103233 79 193 0.0 5.0 0.00 0.00 0.00 81 1013.7
20260903102729 79 163 5.0 7.0 0.00 0.00 0.00 80 1013.7
20260903102223 79 35 2.0 7.0 0.00 0.00 0.00 80 1013.4
20260903101721 79 141 5.0 8.0 0.00 0.00 0.00 80 1013.4
20260903101218 80 38 2.0 10.0 0.00 0.00 0.00 79 1013.5
20260903100717 80 55 3.0 6.0 0.00 0.00 0.00 78 1013.6
20260903100212 80 40 3.0 7.0 0.00 0.00 0.00 77 1013.4
20260903095709 80 135 6.0 8.0 0.00 0.00 0.00 76 1013.7
20260903095204 80 63 2.0 5.0 0.00 0.00 0.00 76 1013.6
20260903094659 80 359 1.0 2.0 0.00 0.00 0.00 75 1013.6
20260903094154 80 135 1.0 3.0 0.00 0.00 0.00 75 1013.7
20260903093650 80 254 2.0 5.0 0.00 0.00 0.00 76 1013.9
20260903093145 80 289 2.0 3.0 0.00 0.00 0.00 76 1013.4
20260903092645 80 222 2.0 5.0 0.00 0.00 0.00 75 1013.7
20260903092140 80 249 3.0 3.0 0.00 0.00 0.00 75 1013.7
20260903091638 80 192 3.0 5.0 0.00 0.00 0.00 75 1013.7
20260903091132 80 226 2.0 3.0 0.00 0.00 0.00 76 1013.7